Weather History for KROW - April, 2013

Change the Weather History Date:

Tuesday, April 30, 2013

  Actual Average Record
Temperature  
Mean Temperature 75 °F 65 °F  
Max Temperature 96 °F 81 °F 96 °F (2002)
Min Temperature 53 °F 50 °F 27 °F (1903)
Degree Days  
Heating Degree Days 0 3  
Month to date heating degree days 162 164  
Since 1 July heating degree days 2933 3258  
Cooling Degree Days 10 3  
Month to date cooling degree days 64 37  
Year to date cooling degree days 66 40  
Growing Degree Days 24 (Base 50)    
Moisture  
Dew Point 23 °F    
Average Humidity 26    
Maximum Humidity 47    
Minimum Humidity 5    
Precipitation  
Precipitation 0.00 in 0.03 in 0.57 in (1999)
Month to date precipitation T 0.61  
Year to date precipitation 0.44 1.92  
Sea Level Pressure  
Sea Level Pressure 29.52 in    
Wind  
Wind Speed 9 mph (SSW)    
Max Wind Speed 28 mph    
Max Gust Speed 39 mph    
Visibility 10 miles    
Events      
T = Trace of Precipitation, MM = Missing Value Source: NWS Daily Summary

Daily Weather History Graph

Daily Weather History Graph

Search for Another Location

Airport or City:

Trip Planner

Search our weather history database for the weather conditions in past years. The results will help you decide how hot, cold, wet, or windy it might be!

Date:

Astronomy

Apr. 30, 2013 Rise Set
Actual Time 6:10 AM MDT 7:40 PM MDT
Civil Twilight 5:44 AM MDT 8:06 PM MDT
Nautical Twilight 5:12 AM MDT 8:38 PM MDT
Astronomical Twilight 4:39 AM MDT 9:11 PM MDT
Moon 12:02 AM MDT (4/30) 10:45 AM MDT (4/30)
Length of Visible Light 14h 22m
Length of Day
13h 29m
Waning Gibbous, 69% of the Moon is Illuminated
Apr 30
Waning Gibbous
May 2
Last Quarter
May 9
New
May 17
First Quarter
May 24
Full

Hourly Weather History & Observations

Time (MDT) Temp. Dew Point Humidity Pressure Visibility Wind Dir Wind Speed Gust Speed Precip Events Conditions
12:51 AM 66.9 °F 28.0 °F 23% 29.53 in 10.0 mi South 10.4 mph - N/A   Clear
1:51 AM 64.9 °F 34.0 °F 32% 29.53 in 10.0 mi SSE 17.3 mph - N/A   Clear
2:51 AM 63.0 °F 36.0 °F 37% 29.53 in 10.0 mi South 12.7 mph - N/A   Clear
3:51 AM 59.0 °F 36.0 °F 42% 29.53 in 10.0 mi South 8.1 mph - N/A   Clear
4:51 AM 55.9 °F 33.1 °F 42% 29.55 in 10.0 mi SW 6.9 mph - N/A   Clear
5:51 AM 53.1 °F 34.0 °F 48% 29.57 in 10.0 mi South 6.9 mph - N/A   Clear
6:51 AM 55.9 °F 36.0 °F 47% 29.58 in 10.0 mi Calm Calm - N/A   Clear
7:51 AM 62.1 °F 37.9 °F 41% 29.60 in 10.0 mi SE 8.1 mph - N/A   Clear
8:51 AM 66.9 °F 39.0 °F 36% 29.59 in 10.0 mi SE 5.8 mph - N/A   Clear
9:51 AM 73.9 °F 37.0 °F 26% 29.58 in 10.0 mi East 6.9 mph - N/A   Clear
10:51 AM 82.0 °F 32.0 °F 16% 29.56 in 10.0 mi East 5.8 mph - N/A   Clear
11:51 AM 88.0 °F 28.0 °F 12% 29.53 in 10.0 mi Calm Calm - N/A   Clear
12:51 PM 91.9 °F 18.0 °F 7% 29.51 in 10.0 mi NE 8.1 mph - N/A   Clear
1:51 PM 93.0 °F 12.0 °F 5% 29.49 in 10.0 mi WNW 8.1 mph - N/A   Clear
2:51 PM 91.0 °F 17.1 °F 7% 29.50 in 10.0 mi SW 9.2 mph 23.0 mph N/A   Clear
3:51 PM 93.0 °F 18.0 °F 6% 29.48 in 10.0 mi SE 8.1 mph - N/A   Clear
4:51 PM 93.9 °F 15.1 °F 6% 29.48 in 10.0 mi Variable 4.6 mph - N/A   Clear
5:51 PM 93.9 °F 12.9 °F 5% 29.47 in 10.0 mi Variable 5.8 mph - N/A   Clear
6:51 PM 91.0 °F 12.0 °F 5% 29.47 in 10.0 mi SSW 5.8 mph - N/A   Clear
7:51 PM 87.1 °F 9.0 °F 5% 29.47 in 10.0 mi WSW 13.8 mph - N/A   Clear
8:51 PM 80.1 °F 8.1 °F 6% 29.49 in 10.0 mi West 11.5 mph - N/A   Clear
9:51 PM 75.0 °F 7.0 °F 7% 29.52 in 10.0 mi West 16.1 mph - N/A   Clear
10:51 PM 73.9 °F 6.1 °F 7% 29.52 in 10.0 mi West 12.7 mph - N/A   Clear
11:51 PM 73.9 °F 7.0 °F 8% 29.51 in 10.0 mi WSW 15.0 mph - N/A   Clear